Location: Epalinges
(46.5518°N, 6.6683°E)
Time: 20:06:11
(UTC+00:00)

Cosmos 883 Rocket - Pass Details

Date: 20 June 2021
Orbit: 950 x 996 km, 83.0° (Epoch: 31 July)

Event Time Altitude Azimuth Distance (km) Brightness Sun altitude
Rises 02:46:27 0° 350° (N) 3,648 8.1 -7.7°
Reaches altitude 10° 02:48:57 10° 350° (N) 2,694 7.4 -7.4°
Maximum altitude 02:55:07 82° 263° (W) 966 4.5 -6.7°
Drops below altitude 10° 03:01:12 10° 177° (S) 2,667 6.4 -5.9°
Sets 03:03:41 0° 177° (S) 3,609 7.1 -5.6°
